FW0153 Weather Reports


time (UTC)temp
F
wind
direction
speed
knots
gust
knots
rain 1hr
in
rain 24hr
in
rain mn
in
humidity
%
barometer
mb
20260503232505 77 62 7.8 0.0 0.00 0.00 0.00 47 1018.4
20260503232004 77 3 11.3 0.0 0.00 0.00 0.00 47 1018.4
20260503231505 78 63 0.0 0.0 0.00 0.00 0.00 47 1018.4
20260503231005 78 32 3.5 0.0 0.00 0.00 0.00 46 1018.1
20260503230505 77 31 3.5 0.0 0.00 0.00 0.00 45 1018.4
20260503230005 77 72 0.0 0.0 0.00 0.00 0.00 47 1018.1
20260503225505 78 47 3.5 0.0 0.00 0.00 0.00 46 1018.4
20260503225005 77 78 11.3 0.0 0.00 0.00 0.00 46 1018.4
20260503224504 78 120 3.5 0.0 0.00 0.00 0.00 45 1018.4
20260503224005 79 59 7.8 0.0 0.00 0.00 0.00 44 1018.4
20260503223505 78 30 3.5 0.0 0.00 0.00 0.00 46 1018.4
20260503223005 77 35 7.8 0.0 0.00 0.00 0.00 46 1018.8
20260503222505 78 74 7.8 0.0 0.00 0.00 0.00 45 1018.8
20260503222213 79 27 11.3 0.0 0.00 0.00 0.00 44 1018.8
20260503221505 79 81 11.3 0.0 0.00 0.00 0.00 44 1018.8
20260503221005 79 72 11.3 0.0 0.00 0.00 0.00 44 1019.1
20260503220712 80 47 3.5 0.0 0.00 0.00 0.00 44 1018.8
20260503220005 78 88 0.0 0.0 0.00 0.00 0.00 47 1019.1
20260503215505 79 57 11.3 0.0 0.00 0.00 0.00 43 1019.1
20260503215005 80 57 0.0 0.0 0.00 0.00 0.00 44 1019.5
20260503214505 80 358 7.8 0.0 0.00 0.00 0.00 44 1019.5
20260503214004 80 87 11.3 0.0 0.00 0.00 0.00 43 1019.5
20260503213505 80 60 11.3 0.0 0.00 0.00 0.00 42 1019.5
20260503213005 80 79 7.8 0.0 0.00 0.00 0.00 43 1019.5
20260503212505 79 7 3.5 0.0 0.00 0.00 0.00 42 1019.5
20260503212005 80 7 11.3 0.0 0.00 0.00 0.00 41 1019.5
20260503211505 80 76 11.3 0.0 0.00 0.00 0.00 42 1019.5
20260503211005 80 42 7.8 0.0 0.00 0.00 0.00 43 1019.5
20260503210505 79 112 3.5 0.0 0.00 0.00 0.00 42 1019.5
20260503210005 80 81 11.3 0.0 0.00 0.00 0.00 42 1019.8
20260503205714 81 359 7.8 0.0 0.00 0.00 0.00 42 1019.5
20260503205005 80 114 0.0 0.0 0.00 0.00 0.00 42 1019.5
20260503204713 79 58 3.5 0.0 0.00 0.00 0.00 44 1019.8
20260503204212 80 72 11.3 0.0 0.00 0.00 0.00 42 1019.8
20260503203505 80 126 3.5 0.0 0.00 0.00 0.00 43 1020.1
20260503203005 79 21 7.8 0.0 0.00 0.00 0.00 42 1020.1
20260503202711 80 37 7.8 0.0 0.00 0.00 0.00 41 1020.5
20260503202005 80 61 7.8 0.0 0.00 0.00 0.00 39 1020.5
20260503201505 80 18 11.3 0.0 0.00 0.00 0.00 42 1020.5
20260503201005 80 60 11.3 0.0 0.00 0.00 0.00 41 1020.5
20260503200711 81 92 3.5 0.0 0.00 0.00 0.00 38 1020.5
20260503200005 81 37 3.5 0.0 0.00 0.00 0.00 39 1020.8
20260503195505 80 139 3.5 0.0 0.00 0.00 0.00 39 1020.8
20260503195005 77 108 3.5 0.0 0.00 0.00 0.00 44 1021.2
20260503194505 78 70 0.0 0.0 0.00 0.00 0.00 43 1021.2
20260503194212 77 96 0.0 0.0 0.00 0.00 0.00 45 1020.8
20260503193505 77 57 3.5 0.0 0.00 0.00 0.00 44 1021.2
20260503193005 78 100 7.8 0.0 0.00 0.00 0.00 43 1021.2
20260503192505 79 181 3.5 0.0 0.00 0.00 0.00 41 1021.2
20260503192005 78 40 3.5 0.0 0.00 0.00 0.00 43 1021.5
20260503191713 77 81 0.0 0.0 0.00 0.00 0.00 44 1021.5
20260503191005 78 33 11.3 0.0 0.00 0.00 0.00 44 1021.5
20260503190505 78 115 3.5 0.0 0.00 0.00 0.00 41 1021.5
20260503190212 78 41 7.8 0.0 0.00 0.00 0.00 43 1021.8
20260503185505 78 353 7.8 0.0 0.00 0.00 0.00 44 1021.8
20260503185005 77 22 3.5 0.0 0.00 0.00 0.00 45 1022.2
20260503184504 78 29 3.5 0.0 0.00 0.00 0.00 45 1022.2
20260503184005 80 15 11.3 0.0 0.00 0.00 0.00 42 1022.2
20260503183713 79 23 3.5 0.0 0.00 0.00 0.00 43 1022.2
20260503183005 78 94 3.5 0.0 0.00 0.00 0.00 45 1022.2
20260503182506 77 121 7.8 0.0 0.00 0.00 0.00 44 1022.2
20260503182006 77 318 7.8 0.0 0.00 0.00 0.00 45 1022.5
20260503181505 78 123 0.0 0.0 0.00 0.00 0.00 42 1022.2
20260503181005 78 121 3.5 0.0 0.00 0.00 0.00 45 1022.5
20260503180505 79 70 27.8 0.0 0.00 0.00 0.00 42 1022.9
20260503180005 80 349 7.8 0.0 0.00 0.00 0.00 44 1022.5
20260503175505 78 299 15.6 0.0 0.00 0.00 0.00 42 1022.9
20260503175005 77 51 3.5 0.0 0.00 0.00 0.00 43 1022.9
20260503174712 77 34 11.3 0.0 0.00 0.00 0.00 45 1023.2
20260503174005 77 25 7.8 0.0 0.00 0.00 0.00 45 1023.2
20260503173505 78 80 3.5 0.0 0.00 0.00 0.00 43 1023.2
20260503173005 78 358 3.5 0.0 0.00 0.00 0.00 42 1023.2
20260503172712 78 42 11.3 0.0 0.00 0.00 0.00 43 1023.2
20260503172005 77 75 11.3 0.0 0.00 0.00 0.00 44 1023.2
20260503171505 77 53 7.8 0.0 0.00 0.00 0.00 46 1023.5
20260503171005 77 76 7.8 0.0 0.00 0.00 0.00 47 1023.5
20260503170505 77 3 7.8 0.0 0.00 0.00 0.00 47 1023.5
20260503151005 74 57 0.0 0.0 0.00 0.00 0.00 54 1023.9
20260503150713 74 299 3.5 0.0 0.00 0.00 0.00 53 1023.9
20260503140212 71 266 0.0 0.0 0.00 0.00 0.00 61 1023.2
20260503131005 65 228 0.0 0.0 0.00 0.00 0.00 74 1022.9
20260503130505 65 224 3.5 0.0 0.00 0.00 0.00 77 1022.9
20260503120211 62 236 0.0 0.0 0.00 0.00 0.00 89 1022.2
20260503110505 61 101 0.0 0.0 0.00 0.00 0.00 90 1022.2
20260503110213 61 101 0.0 0.0 0.00 0.00 0.00 90 1021.8
20260503100212 62 100 0.0 0.0 0.00 0.00 0.00 87 1022.2
20260503090505 62 99 0.0 0.0 0.00 0.00 0.00 86 1021.8
20260503081212 63 99 0.0 0.0 0.00 0.00 0.00 85 1022.5
20260503080505 63 86 0.0 0.0 0.00 0.00 0.00 86 1022.5
20260503072505 62 86 0.0 0.0 0.00 0.00 0.00 86 1022.5
20260503072005 62 85 0.0 0.0 0.00 0.00 0.00 86 1022.2
20260503071505 62 85 0.0 0.0 0.00 0.00 0.00 85 1022.5
20260503071211 62 85 0.0 0.0 0.00 0.00 0.00 84 1022.5
20260503070505 62 86 0.0 0.0 0.00 0.00 0.00 83 1022.9
20260503055004 65 85 0.0 0.0 0.00 0.00 0.00 79 1023.5
20260503054505 65 85 0.0 0.0 0.00 0.00 0.00 79 1023.2
20260503054005 65 85 0.0 0.0 0.00 0.00 0.00 78 1023.2
20260503053505 65 85 0.0 0.0 0.00 0.00 0.00 78 1023.5
20260503053213 65 85 0.0 0.0 0.00 0.00 0.00 77 1023.5
20260503052505 65 85 0.0 0.0 0.00 0.00 0.00 77 1023.2
20260503052005 65 85 0.0 0.0 0.00 0.00 0.00 76 1023.2
20260503051505 65 85 0.0 0.0 0.00 0.00 0.00 76 1023.2
20260503051005 65 85 0.0 0.0 0.00 0.00 0.00 76 1023.2
20260503050505 65 85 0.0 0.0 0.00 0.00 0.00 76 1023.2
20260503045505 65 85 0.0 0.0 0.00 0.00 0.00 75 1023.5
20260503045005 65 85 0.0 0.0 0.00 0.00 0.00 75 1023.2
20260503044505 65 85 0.0 0.0 0.00 0.00 0.00 75 1023.2
20260503044005 65 85 0.0 0.0 0.00 0.00 0.00 75 1023.2
20260503043505 65 85 0.0 0.0 0.00 0.00 0.00 75 1023.2
20260503043005 65 85 0.0 0.0 0.00 0.00 0.00 74 1022.9
20260503042713 65 85 0.0 0.0 0.00 0.00 0.00 75 1022.9
20260503042212 65 84 0.0 0.0 0.00 0.00 0.00 75 1022.9
20260503041504 65 84 0.0 0.0 0.00 0.00 0.00 75 1022.9
20260503041005 65 84 0.0 0.0 0.00 0.00 0.00 76 1022.9
20260503040505 65 84 0.0 0.0 0.00 0.00 0.00 76 1022.9
20260503040005 65 84 0.0 0.0 0.00 0.00 0.00 75 1022.9
20260503035505 65 84 0.0 0.0 0.00 0.00 0.00 76 1022.9
20260503035212 65 84 0.0 0.0 0.00 0.00 0.00 75 1022.9
20260503034505 65 84 0.0 0.0 0.00 0.00 0.00 74 1023.2
20260503034005 65 84 0.0 0.0 0.00 0.00 0.00 74 1023.2
20260503033505 65 84 0.0 0.0 0.00 0.00 0.00 74 1022.9
20260503033005 65 84 0.0 0.0 0.00 0.00 0.00 74 1022.9
20260503032505 65 84 0.0 0.0 0.00 0.00 0.00 74 1022.9
20260503032004 65 84 0.0 0.0 0.00 0.00 0.00 73 1022.9
20260503031505 65 84 0.0 0.0 0.00 0.00 0.00 74 1022.9
20260503031005 65 84 0.0 0.0 0.00 0.00 0.00 73 1022.5
20260503030505 65 84 0.0 0.0 0.00 0.00 0.00 72 1022.5
20260503030005 65 84 0.0 0.0 0.00 0.00 0.00 72 1022.2
20260503025505 65 84 0.0 0.0 0.00 0.00 0.00 71 1022.5
20260503025005 65 84 0.0 0.0 0.00 0.00 0.00 71 1022.2
20260503024504 65 76 0.0 0.0 0.00 0.00 0.00 71 1022.2
20260503024212 65 75 0.0 0.0 0.00 0.00 0.00 70 1022.2
20260503023505 66 72 0.0 0.0 0.00 0.00 0.00 70 1021.8
20260503023005 66 72 0.0 0.0 0.00 0.00 0.00 69 1022.2
20260503022505 66 71 0.0 0.0 0.00 0.00 0.00 68 1021.8
20260503022005 66 81 0.0 0.0 0.00 0.00 0.00 68 1021.5
20260503021713 66 50 0.0 0.0 0.00 0.00 0.00 67 1021.5
20260503021005 67 86 0.0 0.0 0.00 0.00 0.00 67 1021.5
20260503020505 67 81 0.0 0.0 0.00 0.00 0.00 66 1021.5
20260503020004 67 65 0.0 0.0 0.00 0.00 0.00 66 1021.5
20260503015505 68 12 7.8 0.0 0.00 0.00 0.00 65 1021.5
20260503015005 68 55 0.0 0.0 0.00 0.00 0.00 65 1021.5
20260503014505 68 73 0.0 0.0 0.00 0.00 0.00 65 1021.5
20260503014005 68 22 7.8 0.0 0.00 0.00 0.00 65 1021.5
20260503013712 68 1 7.8 0.0 0.00 0.00 0.00 65 1021.5
20260503013005 68 118 3.5 0.0 0.00 0.00 0.00 64 1021.2
20260503012505 68 25 3.5 0.0 0.00 0.00 0.00 63 1021.2
20260503012213 68 44 3.5 0.0 0.00 0.00 0.00 62 1021.2
20260503011506 68 94 3.5 0.0 0.00 0.00 0.00 61 1021.2
20260503011005 68 358 7.8 0.0 0.00 0.00 0.00 62 1021.2
20260503010505 69 52 3.5 0.0 0.00 0.00 0.00 61 1021.2
20260503010005 69 91 3.5 0.0 0.00 0.00 0.00 61 1020.8
20260503005505 69 44 3.5 0.0 0.00 0.00 0.00 61 1020.8
20260503005211 70 49 0.0 0.0 0.00 0.00 0.00 61 1020.8
20260503004505 70 58 3.5 0.0 0.00 0.00 0.00 60 1020.8
20260503004211 70 74 3.5 0.0 0.00 0.00 0.00 58 1020.5
20260503003505 70 63 3.5 0.0 0.00 0.00 0.00 58 1020.8
20260503003005 71 36 3.5 0.0 0.00 0.00 0.00 58 1020.5
20260503002505 70 50 0.0 0.0 0.00 0.00 0.00 58 1020.8
20260503002005 70 21 7.8 0.0 0.00 0.00 0.00 58 1020.8
20260503001505 71 68 0.0 0.0 0.00 0.00 0.00 57 1020.8
20260503001005 71 62 11.3 0.0 0.00 0.00 0.00 56 1020.5
20260503000505 71 42 7.8 0.0 0.00 0.00 0.00 56 1020.8
20260503000213 71 131 3.5 0.0 0.00 0.00 0.00 57 1020.5
20260502235505 71 258 11.3 0.0 0.00 0.00 0.00 56 1020.5
20260502235005 72 62 0.0 0.0 0.00 0.00 0.00 55 1020.5
20260502234505 72 65 3.5 0.0 0.00 0.00 0.00 54 1020.1
20260502234005 73 354 11.3 0.0 0.00 0.00 0.00 54 1020.1
20260502233505 73 294 7.8 0.0 0.00 0.00 0.00 55 1020.1
20260502233005 72 22 7.8 0.0 0.00 0.00 0.00 54 1020.1